Flag for Russia Weather past 2 weeks in Yakutsk, Russia

Now
27 °F

Clear.


Feels Like: 27 °F
Forecast: 18 / 42 °F
Wind: 1 mph from Northwest

Location: Jakutsk

Current Time: Apr 27, 2015 at 1:23:59 AM

Latest Report: Apr 27, 2015 at 1:00 AM


Visibility: 10 mi

Pressure: 29.62 "Hg

Humidity: 74%

Dew point: 19 °F

Location of YakutskLocation

Historic Weather in Yakutsk — Graph

°F

Yakutsk temperature yesterday

Maximum temperature yesterday: 45 °F (at 1:30 PM)
Minimum temperature yesterday: 21 °F (at 3:30 AM)
Average temperature yesterday: 34 °F

Past Weeks' High & Low Weather Summary

 TemperatureHumidityPressure
High46 °F (Apr 22, 4:30 PM)100% (Apr 16, 11:30 PM)30.30 "Hg (Apr 16, 11:30 PM)
Low-4 °F (Apr 12, 4:30 AM)22% (Apr 21, 3:00 PM)29.36 "Hg (Apr 25, 4:30 AM)
Average28 °F59%29.76 "Hg
* Reported Midnight between Apr 11 and Apr 12 — Midnight between Apr 26 and Apr 27, Yakutsk, Weather by CustomWeather, © 2015

Note: Actual official high and low records may vary slightly from our data, if they occured in-between our weather recording intervals... More about our weather records

Advertising

Yakutsk weather history for previous 24 hours

 ConditionsComfort  
Time TempWeatherWind HumidityBarometerVisibility
12:00 AM
Mon, Apr 27
28 °FClear.3 mph69%29.59 "Hg10 mi
11:30 PM
Sun, Apr 26
28 °FClear.1 mph64%29.59 "Hg10 mi
11:00 PM30 °FClear.3 mph59%29.59 "Hg10 mi
10:30 PM32 °FClear.3 mph55%29.59 "Hg10 mi
10:00 PM32 °FClear.3 mph60%29.56 "Hg10 mi
9:30 PM34 °FClear.6 mph51%29.56 "Hg10 mi
9:00 PM34 °FClear.6 mph56%29.56 "Hg10 mi
8:30 PM36 °FClear.3 mph52%29.56 "Hg10 mi
8:00 PM37 °FSunny.6 mph48%29.53 "Hg10 mi
7:30 PM39 °FSunny.6 mph42%29.53 "Hg10 mi
7:00 PM41 °FSunny.6 mph42%29.50 "Hg10 mi
6:30 PM43 °FSunny.6 mph36%29.50 "Hg10 mi
6:00 PM43 °FSunny.6 mph34%29.50 "Hg10 mi
5:30 PM43 °FSunny.8 mph34%29.47 "Hg10 mi
5:00 PM45 °FSunny.8 mph31%29.47 "Hg10 mi
4:30 PM45 °FSunny.8 mph27%29.47 "Hg10 mi
4:00 PM45 °FSunny.8 mph29%29.47 "Hg10 mi
3:30 PM45 °FSunny.8 mph29%29.47 "Hg10 mi
3:00 PM45 °FSunny.8 mph27%29.45 "Hg10 mi
2:30 PM45 °FSunny.8 mph29%29.45 "Hg10 mi
2:00 PM45 °FSunny.8 mph29%29.45 "Hg10 mi
1:30 PM45 °FSunny.6 mph29%29.45 "Hg10 mi
1:00 PM43 °FSunny.6 mph34%29.45 "Hg10 mi
12:30 PM43 °FSunny.6 mph36%29.45 "Hg10 mi
12:00 PM41 °FSunny.6 mph45%29.45 "Hg10 mi
11:30 AM41 °FSunny.6 mph42%29.45 "Hg10 mi
11:00 AM39 °FSunny.3 mph45%29.45 "Hg10 mi
10:30 AM39 °FSunny.6 mph45%29.45 "Hg10 mi
10:00 AM37 °FPassing clouds.3 mph41%29.45 "HgN/A
9:30 AM36 °FSunny.3 mph48%29.45 "Hg10 mi
9:00 AM34 °FSunny.3 mph51%29.45 "Hg10 mi
8:30 AM32 °FSunny.3 mph60%29.45 "Hg10 mi
8:00 AM30 °FSunny.3 mph59%29.45 "Hg10 mi
7:30 AM28 °FSunny.3 mph64%29.45 "Hg10 mi
7:00 AM28 °FSunny.3 mph64%29.45 "Hg10 mi
6:00 AM25 °FSunny.3 mph74%29.45 "Hg10 mi
5:30 AM23 °FSunny.1 mph80%29.45 "Hg10 mi
5:00 AM21 °FSunny.1 mph80%29.45 "Hg10 mi
4:30 AM21 °FSunny.1 mph80%29.45 "Hg10 mi
4:00 AM21 °FClear.3 mph80%29.45 "Hg10 mi
3:30 AM21 °FClear.3 mph86%29.45 "Hg10 mi
3:00 AM23 °FClear.1 mph80%29.45 "Hg10 mi
2:30 AM25 °FClear.1 mph74%29.45 "Hg10 mi
2:00 AM25 °FClear.3 mph74%29.45 "Hg10 mi
1:30 AM27 °FClear.3 mph69%29.45 "Hg10 mi
1:00 AM27 °FClear.3 mph69%29.45 "Hg10 mi
Weather by CustomWeather, © 2015

See weather overviewHow to use our weather pages